Zurück zum Katalog

SL-16 DEB

AktivLEO
NORAD 18411·DEBRIS·🇷🇺 Russia

Gestartet May 13, 1987 von Baikonur Cosmodrome

Loading…

Nächste Überflüge (nächste 24 Stunden)

TLE

AktuellSource: Space-Track

Epoche: Sep 14, 2026, 10:53 UTC

1 18411U 87041D   26257.45364676  .00000033  00000-0  67125-4 0  9999
2 18411  71.0284 257.4771 0186106  82.9841  67.3324 13.76497441974524

Verfolge SL-16 DEB in Echtzeit mit AllMySat

Download on the App Store